EHI
0 0 0 0 0 0 0 0 0 0 0 0 0 0 0 0 0 0 1 2 2 4 6 6 5 3 2 2 4 6 8 9 9 8 7 7 4 1 0 0 0 0 0 0
0 0 0 0 0 0 0 0 0 0 0 0 0 0 0 0 0 0 0 1 1 3 6 8 7 6 4 4 6 8 8 8 8 7 7 7 4 1 0 0 0 0 0 0
0 0 0 0 0 0 0 0 0 0 0 0 0 0 0 0 0 0 0 0 0 2 6 9 10 10 8 8 9 10 9 9 9 8 8 7 5 2 1 1 1 1 1 1
0 0 0 0 0 1 1 1 1 0 0 0 0 0 0 0 0 0 1 1 0 1 5 10 12 12 11 9 10 12 14 14 13 11 9 9 7 5 3 3 3 3 2 2
0 0 0 0 1 2 1 1 0 0 0 0 0 0 0 0 0 1 2 2 1 1 3 8 11 12 11 9 9 13 16 16 15 14 13 11 9 8 6 5 5 6 5 5
0 0 0 0 1 2 1 0 0 0 0 0 0 0 0 0 0 1 2 3 3 3 4 7 9 10 10 9 9 11 14 16 15 16 15 13 11 11 11 9 8 8 8 7
0 0 0 0 1 1 1 0 0 0 0 0 0 0 0 0 0 0 2 4 7 7 8 8 9 10 11 11 10 11 14 16 17 18 17 15 14 15 15 11 9 8 7 6
0 0 0 0 0 0 0 0 0 0 0 0 0 0 0 0 1 1 2 5 10 12 11 10 9 10 13 13 13 15 17 18 19 20 21 19 18 16 16 13 9 7 6 5
0 0 0 0 0 0 0 0 0 0 0 0 0 0 0 0 2 3 4 7 12 14 12 10 8 9 13 15 15 16 18 19 20 21 22 22 19 17 14 12 9 7 8 8
0 0 0 0 0 0 0 0 0 0 0 0 0 0 0 1 2 5 6 10 14 16 14 11 9 9 11 14 15 16 18 21 22 21 20 20 20 17 13 11 9 10 12 13
0 0 0 0 0 0 0 0 0 0 0 0 0 0 1 2 3 5 8 12 17 19 19 17 17 16 15 15 16 19 24 26 27 25 22 20 19 17 13 11 10 13 16 17
0 0 0 0 0 0 0 0 0 0 0 0 0 1 2 3 4 6 9 12 17 23 26 25 26 26 24 21 22 25 28 30 30 29 27 24 21 20 17 14 14 16 19 19
0 0 0 0 0 0 0 0 0 0 0 0 0 2 4 5 6 8 11 12 16 24 29 31 32 33 31 29 29 28 28 29 29 29 29 28 27 26 24 20 19 21 22 21
0 0 0 0 0 0 0 0 0 0 0 0 0 2 4 6 8 9 11 13 17 23 28 31 34 35 35 34 32 28 26 25 26 27 29 30 32 32 29 26 26 26 26 25
0 0 0 0 0 0 0 0 0 0 0 0 1 3 5 7 8 9 13 16 18 22 26 30 32 34 36 35 33 30 27 25 26 28 29 32 35 36 32 28 28 28 28 28
0 0 0 0 0 0 0 0 0 0 0 0 2 5 8 8 8 11 15 16 17 20 24 26 29 33 33 33 33 33 30 30 32 33 33 36 39 39 33 28 27 26 26 27
0 0 0 0 0 0 0 0 1 1 1 2 4 8 9 9 10 13 16 16 17 20 23 25 28 30 29 28 30 31 32 34 38 40 39 40 43 42 35 29 28 27 26 27
0 0 0 0 0 1 1 1 2 4 5 5 7 9 9 9 10 13 15 17 18 22 26 28 29 25 23 22 24 27 32 37 41 43 44 44 44 42 36 32 32 32 32 32
0 0 0 0 0 1 2 1 2 5 7 7 7 8 9 9 9 11 14 17 20 23 28 31 29 23 20 19 21 25 32 38 42 43 44 44 43 40 34 31 31 34 34 34
0 0 0 0 0 1 1 1 2 4 7 8 7 7 9 9 9 11 15 20 23 26 28 29 28 25 22 20 22 25 30 35 38 40 39 39 36 33 29 27 28 31 32 30
0 0 0 0 0 1 2 3 3 5 8 9 9 8 9 10 11 14 19 23 25 28 29 28 26 25 23 21 22 24 26 29 33 35 34 31 27 25 24 25 27 29 29 27
1 0 0 1 1 3 5 7 8 10 11 11 11 10 11 13 16 18 21 23 24 28 30 28 25 25 23 22 22 24 26 28 30 30 28 25 22 21 22 24 25 26 26 25
2 2 3 4 6 8 10 12 14 16 16 15 13 12 11 13 16 18 19 20 22 26 28 27 25 24 24 24 24 27 29 29 28 26 26 25 23 22 24 25 24 24 25 25
4 4 6 10 12 13 15 16 17 19 20 18 14 12 11 11 13 15 17 18 20 22 24 26 27 27 27 26 26 28 29 27 26 26 25 26 25 26 28 27 26 24 24 25
4 5 8 13 16 16 16 16 17 19 20 18 16 13 11 10 12 15 17 18 19 19 20 25 29 32 32 29 26 24 23 23 24 26 26 25 25 26 28 27 22 19 19 18
4 6 9 14 16 16 16 15 16 19 20 18 16 14 11 10 13 16 17 18 19 19 20 25 30 35 35 31 24 20 19 19 22 26 27 25 23 23 25 24 17 12 12 11
Wind_Speed
10 11 10 9 9 7 5 5 3 1 3 6 6 6 6 9 10 10 10 10 10 10 9 9 8 8 7 7 7 7 7 6 5 4 4 3 3 2 2 2 3 2 2 2
10 13 11 8 7 8 8 8 5 3 3 5 5 6 6 9 11 10 10 11 11 10 10 10 10 9 9 8 8 8 8 7 6 4 3 2 1 1 1 1 2 2 2 2
16 7 7 9 10 10 10 9 6 4 4 7 7 7 7 9 10 10 11 11 11 11 12 12 11 11 10 9 9 8 8 7 7 6 4 3 3 2 3 3 3 3 3 3
13 8 8 11 11 11 9 6 6 6 8 5 6 5 5 7 9 11 11 12 12 12 13 13 13 12 11 11 10 9 8 8 7 7 6 5 4 3 2 2 2 3 3 3
11 10 11 12 10 10 6 4 6 8 9 8 6 7 3 7 8 10 11 12 12 13 13 13 13 13 12 11 10 10 9 9 8 8 7 6 5 4 3 3 3 3 3 3
9 7 9 8 6 7 6 6 6 9 10 9 6 8 3 4 6 7 9 11 12 13 13 13 13 12 12 11 11 10 10 10 9 9 8 8 6 5 4 4 4 4 3 3
12 11 8 7 8 9 11 10 8 9 9 7 4 8 4 1 3 5 7 9 10 12 13 13 14 14 13 13 12 11 11 10 10 9 9 8 7 7 6 5 5 4 4 4
15 14 13 10 11 10 13 14 10 8 7 5 7 7 3 1 2 4 6 7 9 10 12 13 14 14 13 13 13 12 12 11 10 10 9 8 8 6 5 6 4 4 4 3
10 11 9 9 9 11 12 13 12 12 11 10 6 6 5 4 5 5 6 7 8 9 11 12 13 14 14 13 13 13 12 11 10 10 9 8 8 7 6 5 5 4 4 4
8 8 9 8 8 8 11 10 9 11 10 11 9 8 4 5 5 6 6 7 7 8 10 10 11 12 12 12 12 12 12 11 10 10 9 8 8 7 6 6 5 4 4 4
9 10 9 10 12 12 11 13 12 10 10 11 9 5 2 3 4 5 6 6 6 7 9 9 9 10 10 10 11 11 11 11 10 9 9 8 8 7 7 6 6 6 5 6
7 9 10 11 7 7 12 13 14 12 10 11 11 5 2 2 3 4 4 5 5 5 6 8 9 9 10 10 10 11 11 11 10 9 9 8 8 7 7 7 7 6 6 6
4 8 10 11 11 10 11 12 13 14 12 11 13 6 4 3 2 3 3 4 5 5 6 7 8 8 9 9 9 10 10 10 10 10 9 9 8 8 7 7 6 6 6 6
7 9 11 12 7 7 11 11 11 13 12 12 13 8 5 4 3 3 3 4 5 6 6 6 7 7 7 8 8 9 9 9 9 9 9 9 8 8 7 7 6 6 5 5
6 10 11 11 9 9 11 13 13 15 14 14 10 9 6 4 3 3 3 3 5 5 6 7 7 6 6 7 8 8 8 8 9 9 9 9 8 7 7 6 6 6 6 6
5 8 10 12 11 12 13 14 14 15 15 14 13 9 4 3 2 2 3 4 5 6 6 6 6 6 6 6 7 7 8 8 9 9 9 8 7 7 7 6 6 6 6 5
6 7 9 12 11 12 15 13 14 13 12 13 13 8 5 4 4 3 3 4 4 4 4 4 5 5 6 6 6 6 7 7 7 7 6 6 6 6 6 6 6 6 6 5
7 8 8 10 10 17 7 4 7 9 9 8 6 5 5 4 3 2 2 3 3 3 3 4 4 5 5 5 6 6 6 7 7 6 6 6 6 6 5 5 5 5 5 5
9 9 8 9 13 12 7 5 7 8 7 4 5 5 3 3 4 4 2 1 2 2 2 3 3 4 4 5 5 5 6 6 6 6 6 6 6 6 6 6 5 5 4 5
9 9 10 10 12 13 5 3 1 5 8 4 4 3 3 5 6 3 2 1 1 1 2 2 3 3 4 4 4 5 5 5 5 5 5 5 6 6 6 5 5 4 5 5
10 10 12 13 12 7 1 1 4 9 2 3 1 2 3 3 3 1 1 2 1 1 2 3 3 3 3 3 4 4 4 4 4 4 4 4 5 5 5 4 4 5 5 4
8 9 11 11 13 7 3 3 4 2 3 1 1 2 1 1 0 1 1 2 2 2 2 3 3 3 2 3 4 4 4 3 3 3 4 4 4 4 4 4 4 5 5 5
6 4 4 4 3 3 2 2 3 1 1 2 3 2 0 1 1 1 0 1 2 2 2 2 3 3 2 2 3 3 2 3 3 3 3 3 3 3 3 4 5 5 5 4
4 3 5 4 3 2 1 2 2 2 2 3 3 1 1 1 1 0 0 0 1 1 1 2 2 2 2 2 1 2 2 2 3 3 3 3 3 3 3 3 3 3 3 4
4 4 5 7 5 4 3 2 2 3 3 3 3 2 1 1 1 1 1 0 0 0 0 1 1 1 2 1 1 1 2 3 4 4 3 4 3 3 3 2 0 2 1 1
7 7 8 6 5 5 4 4 4 4 3 3 2 2 2 2 2 1 1 1 1 1 1 1 1 1 1 1 1 1 2 3 4 3 3 3 3 3 3 3 2 6 3 3
Wind_Direction
195 216 217 215 229 262 268 266 252 204 170 224 236 233 201 192 202 201 196 194 196 197 190 188 190 190 184 180 180 183 183 175 182 184 189 181 179 182 170 172 164 180 187 169
202 221 225 231 229 240 246 252 245 199 192 243 252 247 223 204 209 210 205 201 200 196 187 187 191 191 189 185 184 184 185 182 188 181 192 192 188 190 175 181 165 192 186 195
222 217 205 218 217 228 238 253 263 249 206 224 255 232 216 201 208 212 214 210 204 200 193 189 192 193 192 189 189 188 186 183 190 187 189 181 179 207 191 186 178 186 190 192
228 212 209 221 223 231 235 242 255 249 239 228 243 265 196 195 203 209 211 209 206 202 198 193 192 192 193 191 187 187 185 186 187 190 198 202 203 205 191 197 166 175 185 195
214 208 215 227 229 229 243 238 233 241 250 255 231 264 191 187 210 209 206 206 205 202 198 196 195 191 192 189 185 183 184 188 189 194 195 204 210 206 192 183 169 199 185 203
227 208 227 232 226 215 189 197 215 233 244 243 244 261 240 198 215 210 204 202 202 199 198 197 194 189 191 188 186 183 183 188 189 195 199 204 207 208 203 193 189 203 198 199
214 210 205 208 199 190 209 222 222 220 225 237 214 249 258 246 209 217 209 199 196 196 195 194 191 188 189 190 189 185 183 188 190 194 200 202 206 206 206 209 201 212 205 198
214 211 200 207 223 213 215 234 243 250 248 230 201 242 246 184 202 220 212 196 190 191 192 193 191 189 190 191 191 187 185 190 191 193 198 201 206 212 209 211 222 212 220 210
224 218 190 205 221 231 218 230 251 258 260 261 232 230 227 210 210 210 204 191 188 189 187 189 187 189 189 190 190 190 187 189 191 192 192 197 203 215 217 208 219 223 218 212
245 232 200 191 206 223 247 236 235 245 251 254 241 233 229 214 211 199 197 193 187 187 184 183 183 186 186 186 186 189 188 189 189 190 194 191 196 203 210 216 216 223 222 218
242 233 210 203 216 215 210 220 233 245 253 259 255 236 185 220 217 211 200 196 190 186 180 178 178 177 176 179 180 183 183 185 187 190 191 194 195 199 205 211 214 214 215 210
235 242 232 222 221 250 233 231 227 234 237 250 265 250 127 198 207 210 207 186 182 179 174 172 170 170 174 178 179 179 181 184 186 186 186 191 195 200 206 208 212 211 211 212
231 238 227 215 205 208 224 231 237 242 242 243 251 236 149 165 192 193 189 170 163 163 162 165 166 169 175 179 180 180 183 185 185 182 185 188 194 197 203 206 206 208 208 210
257 241 243 244 238 214 220 224 232 241 241 243 246 247 210 193 195 193 181 175 170 166 165 165 164 169 173 175 178 183 188 187 186 186 189 191 197 200 201 201 202 203 204 205
251 241 243 257 261 251 243 234 230 238 249 256 254 249 243 243 230 210 195 183 180 176 172 171 168 167 170 172 176 182 186 188 189 190 194 195 195 196 198 199 203 202 202 202
252 253 245 244 244 246 246 242 237 239 244 248 251 251 259 256 215 195 191 186 186 184 180 174 170 169 174 176 178 178 183 186 189 194 199 195 193 193 195 195 198 200 202 200
237 241 242 241 234 241 238 237 237 236 241 247 246 245 240 239 220 207 194 192 189 185 177 173 175 177 178 177 175 176 177 178 183 189 194 192 190 191 196 198 197 204 204 199
240 243 244 243 229 236 236 234 240 236 238 249 249 237 230 232 230 196 193 197 193 179 174 177 178 175 173 170 174 176 173 174 179 185 187 186 183 184 189 193 198 205 205 203
227 232 241 238 233 236 220 212 224 231 235 238 233 225 225 204 201 184 175 199 203 185 175 180 181 169 163 166 166 167 171 173 178 182 184 187 188 188 191 191 196 200 200 202
201 220 238 234 240 238 208 144 252 238 223 195 215 211 222 214 226 192 140 153 110 124 138 148 148 146 150 155 156 162 166 172 180 183 188 192 195 195 196 195 196 195 197 203
193 205 226 234 239 241 85 134 207 228 181 92 143 215 230 252 289 12 90 110 117 138 126 134 136 132 135 143 155 163 169 179 187 190 193 197 203 203 198 194 191 194 201 203
224 215 217 229 236 225 68 206 237 10 45 36 354 306 284 289 302 139 107 116 134 132 140 139 128 121 128 146 160 170 180 179 180 186 191 191 194 205 192 194 196 195 197 201
243 276 267 260 266 38 38 19 15 357 325 322 319 319 255 230 210 159 88 107 116 127 144 140 132 132 138 152 162 167 167 161 163 176 185 183 186 189 190 196 197 197 197 206
212 259 262 261 232 248 313 330 327 325 317 310 298 268 202 199 198 184 359 90 108 106 120 143 143 142 143 143 138 158 167 172 173 180 183 182 186 184 178 194 198 200 202 207
261 247 248 250 248 253 248 265 301 306 304 299 292 264 244 236 235 261 307 279 234 192 159 153 156 160 153 152 162 178 180 180 187 190 191 192 190 175 169 176 172 218 203 267
245 247 249 255 253 267 270 285 286 280 281 290 291 281 276 270 266 272 287 278 262 242 218 181 176 175 166 165 174 196 195 194 199 202 204 206 197 176 175 157 105 48 53 66